Location: *
(50.3194°N, 7.1067°E)
Time: 09:48:20
(UTC+00:00)

YAOGAN 6 - Pass Details

Date: 22 September 2019
Orbit: 466 x 505 km, 97.0° (Epoch: 23 October)

Event Time Altitude Azimuth Distance (km) Brightness Sun altitude
Rises 18:07:55 0° 180° (S) 2,580 6.2 -6.8°
Reaches altitude 10° 18:10:02 10° 186° (S) 1,707 5.3 -7.1°
Maximum altitude 18:13:36 47° 261° (W) 675 3.8 -7.7°
Drops below altitude 10° 18:17:13 10° 337° (NNW) 1,731 5.8 -8.2°
Sets 18:19:23 0° 343° (NNW) 2,623 6.7 -8.6°
